Cedar City, UT

8:24 PM MST on December 11, 2017 (GMT -0700)
Cedar City Regional

Weather History for KCDC - September, 2013

Change the Weather History Date:

Saturday, September 14, 2013

  Actual Average Record
Temperature  
Mean Temperature 62 °F 63 °F  
Max Temperature 75 °F 80 °F 92 °F (2000)
Min Temperature 48 °F 46 °F 27 °F (1993)
Degree Days  
Heating Degree Days 3 4  
Month to date heating degree days 25 30  
Since 1 July heating degree days 28 39  
Cooling Degree Days 0 1  
Month to date cooling degree days 31 30  
Year to date cooling degree days 663 579  
Growing Degree Days 10 (Base 50)    
Moisture  
Dew Point 51 °F    
Average Humidity 69    
Maximum Humidity 96    
Minimum Humidity 41    
Precipitation  
Precipitation 0.01 in 0.02 in 1.01 in (1978)
Month to date precipitation 1.75 0.29  
Year to date precipitation 13.00 7.83  
Sea Level Pressure  
Sea Level Pressure 29.85 in    
Wind  
Wind Speed 2 mph (WNW)    
Max Wind Speed 10 mph    
Max Gust Speed 15 mph    
Visibility 10 miles    
Events Rain    
T = Trace of Precipitation, MM = Missing Value Source: NWS Daily Summary

Daily Weather History Graph

Daily Weather History Graph

Search for Another Location

Airport or City:

Trip Planner

Search our weather history database for the weather conditions in past years. The results will help you decide how hot, cold, wet, or windy it might be!

Date:

Astronomy

Sep. 14, 2013 Rise Set
Actual Time 7:13 AM MDT 7:41 PM MDT
Civil Twilight 6:47 AM MDT 8:07 PM MDT
Nautical Twilight 6:16 AM MDT 8:38 PM MDT
Astronomical Twilight 5:44 AM MDT 9:09 PM MDT
Moon 4:21 PM MDT (9/14) 1:54 AM MDT (9/14)
Length of Visible Light 13h 20m
Length of Day
12h 27m
Waxing Gibbous, 73% of the Moon is Illuminated
Sep 14
Waxing Gibbous
Sep 19
Full
Sep 26
Last Quarter
Oct 4
New
Oct 11
First Quarter

Hourly Weather History & Observations

Time (MDT) Temp. Dew Point Humidity Pressure Visibility Wind Dir Wind Speed Gust Speed Precip Events Conditions
12:53 AM 54.0 °F 52.0 °F 93% 29.84 in 10.0 mi NNE 4.6 mph - N/A   Clear
1:53 AM 52.0 °F 48.9 °F 89% 29.83 in 10.0 mi SW 4.6 mph - N/A   Clear
2:53 AM 52.0 °F 50.0 °F 93% 29.83 in 10.0 mi ESE 3.5 mph - N/A   Clear
3:53 AM 52.0 °F 50.0 °F 93% 29.82 in 10.0 mi Calm Calm - N/A   Clear
4:53 AM 50.0 °F 48.0 °F 93% 29.83 in 10.0 mi Calm Calm - N/A   Clear
5:53 AM 48.0 °F 46.9 °F 96% 29.84 in 10.0 mi Calm Calm - 0.01 in   Clear
6:53 AM 48.9 °F 46.9 °F 93% 29.86 in 10.0 mi Calm Calm - N/A   Scattered Clouds
7:53 AM 48.9 °F 48.0 °F 97% 29.88 in 10.0 mi Calm Calm - N/A   Mostly Cloudy
8:53 AM 54.0 °F 52.0 °F 93% 29.89 in 10.0 mi Calm Calm - N/A   Clear
9:53 AM 60.1 °F 53.1 °F 78% 29.88 in 10.0 mi Calm Calm - N/A   Clear
10:53 AM 64.0 °F 53.1 °F 67% 29.87 in 10.0 mi Calm Calm - N/A   Clear
11:53 AM 66.9 °F 53.1 °F 61% 29.86 in 10.0 mi NW 3.5 mph - N/A   Clear
12:53 PM 70.0 °F 52.0 °F 53% 29.84 in 10.0 mi Calm Calm - N/A   Clear
1:53 PM 72.0 °F 50.0 °F 46% 29.82 in 10.0 mi West 3.5 mph - N/A   Clear
2:53 PM 73.9 °F 51.1 °F 45% 29.79 in 10.0 mi WNW 6.9 mph - N/A   Clear
3:53 PM 73.9 °F 50.0 °F 43% 29.78 in 10.0 mi NW 5.8 mph - N/A   Clear
4:53 PM 72.0 °F 50.0 °F 46% 29.78 in 10.0 mi Variable 3.5 mph - N/A   Clear
5:53 PM 66.9 °F 55.0 °F 66% 29.81 in 10.0 mi North 3.5 mph - N/A   Clear
6:53 PM 63.0 °F 51.1 °F 65% 29.87 in 10.0 mi WNW 8.1 mph - N/A   Overcast
7:53 PM 63.0 °F 50.0 °F 63% 29.87 in 10.0 mi SSE 5.8 mph - 0.00 in Rain Light Rain
8:53 PM 57.9 °F 51.1 °F 78% 29.88 in 10.0 mi WNW 4.6 mph - 0.00 in   Clear
9:53 PM 55.9 °F 51.1 °F 84% 29.88 in 10.0 mi Calm Calm - N/A   Clear
10:53 PM 57.0 °F 51.1 °F 81% 29.89 in 10.0 mi Calm Calm - N/A   Overcast
11:53 PM 55.0 °F 51.1 °F 86% 29.88 in 10.0 mi WNW 5.8 mph - N/A   Scattered Clouds